This demonstration page uses our WeatherBlox Daily Observations layout. Learn more.

Left ArrowRight Arrow

Hourly Observations for November 14, 2019

Temp ( °F °C ) Dew Point ( °F °C ) Humidity (%) Winds ( mph kmh ) Pressure ( in mb ) Visibility ( mi km ) Precip ( " mm )
12:53 am 00:53 Clear 52 11.1 40 4.4 64 64 Calm 29.96 1015 10 16 0.00 0.00
1:53 am 01:53 Clear 52 11.1 40 4.4 64 64 Calm 29.96 1015 10 16 0.00 0.00
2:53 am 02:53 Clear 52 11.1 41 5 66 66 Calm 29.96 1015 10 16 0.00 0.00
3:53 am 03:53 Clear 50 10 42 5.6 74 74 Calm 29.96 1015 10 16 0.00 0.00
4:53 am 04:53 Clear 49 9.4 39 3.9 69 69 NNE 3 6 29.96 1015 10 16 0.00 0.00
5:53 am 05:53 Clear 50 10 39 3.9 66 66 Calm 29.97 1015 10 16 0.00 0.00
6:53 am 06:53 Clear 51 10.6 41 5 69 69 Calm 29.99 1016 10 16 0.00 0.00
7:53 am 07:53 Sunny 51 10.6 40 4.4 66 66 Calm 30.00 1016 10 16 0.00 0.00
8:53 am 08:53 Sunny 56 13.3 43 6.1 62 62 Calm 30.01 1016 10 16 0.00 0.00
9:53 am 09:53 Sunny 62 16.7 42 5.6 48 48 Calm 30.01 1016 10 16 0.00 0.00
10:53 am 10:53 Sunny 64 17.8 40 4.4 41 41 SE 7 11 30.02 1017 10 16 0.00 0.00
11:53 am 11:53 Sunny 66 18.9 42 5.6 42 42 VRB 5 7 30.01 1016 10 16 0.00 0.00
12:53 pm 12:53 Sunny 69 20.6 43 6.1 39 39 SSW 7 11 29.99 1016 10 16 0.00 0.00
1:53 pm 13:53 Sunny 71 21.7 44 6.7 38 38 S 9 15 29.98 1015 10 16 0.00 0.00
2:53 pm 14:53 Sunny 70 21.1 44 6.7 39 39 SSE 12 19 29.98 1015 10 16 0.00 0.00
3:53 pm 15:53 Sunny 68 20 46 7.8 45 45 SSE 9 15 29.99 1016 10 16 0.00 0.00
4:53 pm 16:53 Clear 65 18.3 44 6.7 47 47 S 9 15 30.00 1016 10 16 0.00 0.00
5:53 pm 17:53 Mostly Clear 64 17.8 46 7.8 52 52 SSW 7 11 30.04 1017 10 16 0.00 0.00
6:53 pm 18:53 Clear 60 15.6 47 8.3 62 62 Calm 30.05 1018 9 14 0.00 0.00
7:53 pm 19:53 Clear 58 14.4 46 7.8 65 65 Calm 30.07 1018 10 16 0.00 0.00
8:53 pm 20:53 Clear 56 13.3 46 7.8 70 70 Calm 30.10 1019 10 16 0.00 0.00
9:53 pm 21:53 Mostly Clear 52 11.1 43 6.1 72 72 Calm 30.11 1020 10 16 0.00 0.00
10:53 pm 22:53 Mostly Cloudy 54 12.2 46 7.8 75 75 WSW 3 6 30.12 1020 10 16 0.00 0.00
11:53 pm 23:53 Cloudy 54 12.2 45 7.2 72 72 NNW 3 6 30.13 1020 10 16 0.00 0.00

Powered by AerisWeather